Weather History for PAOM - August, 2013

Change the Weather History Date:

Monday, August 5, 2013

  Actual Average Record
Temperature  
Mean Temperature 52 °F 51 °F  
Max Temperature 59 °F 57 °F 78 °F (1981)
Min Temperature 44 °F 46 °F 29 °F (1932)
Degree Days  
Heating Degree Days 13 14  
Month to date heating degree days 41 70  
Since 1 June heating degree days 924 986  
Since 1 July heating degree days 448 470  
Cooling Degree Days 0    
Month to date cooling degree days 0  
Year to date cooling degree days 7  
Since 1 June cooling degree days 7  
Growing Degree Days 4 (Base 50)    
Moisture  
Dew Point 51 °F    
Average Humidity 0    
Maximum Humidity 0    
Minimum Humidity 0    
Precipitation  
Precipitation 0.28 in 0.11 in 1.19 in (1965)
Month to date precipitation 1.12 0.53  
Year to date precipitation 10.02 7.76  
Snow  
Snow 0.00 in 0.00 in 0.00 in (2014)
Month to date snowfall 0.0 0.0  
Since 1 June snowfall 0.1 0.3  
Since 1 July snowfall 0.0 0.0  
Snow Depth 0.00 in    
Sea Level Pressure  
Sea Level Pressure 29.75 in    
Wind  
Wind Speed 8 mph (NE)    
Max Wind Speed 20 mph    
Max Gust Speed 23 mph    
Visibility 8 miles    
Events Rain    
T = Trace of Precipitation, MM = Missing Value Source: NWS Daily Summary

Daily Weather History Graph

Daily Weather History Graph

Search for Another Location

Airport or City:

Trip Planner

Search our weather history database for the weather conditions in past years. The results will help you decide how hot, cold, wet, or windy it might be!

Date:

Astronomy

Aug. 05, 2013 Rise Set
Actual Time 6:19 AM AKDT 11:53 PM AKDT
Civil Twilight 4:57 AM AKDT 1:13 AM AKDT
Nautical Twilight Sun does not rise Sun does not rise
Astronomical Twilight Sun does not rise Sun does not rise
Moon 5:37 AM AKDT (8/5) 10:35 PM AKDT (8/5)
Length of Visible Light 20h 16m
Length of Day
17h 33m
Waning Crescent, 1% of the Moon is Illuminated
Aug 5
Waning Crescent
Aug 6
New
Aug 14
First Quarter
Aug 20
Full
Aug 28
Last Quarter

Hourly Weather History & Observations

Time (AKDT) Temp. Windchill Dew Point Humidity Pressure Visibility Wind Dir Wind Speed Gust Speed Precip Events Conditions
12:53 AM 50.0 °F - 44.1 °F 80% 29.77 in 10.0 mi NE 4.6 mph - N/A   Mostly Cloudy
1:53 AM 46.0 °F 44.8 °F 43.0 °F 89% 29.78 in 10.0 mi NNW 3.5 mph - N/A   Mostly Cloudy
2:53 AM 44.1 °F - 41.0 °F 89% 29.78 in 10.0 mi Calm Calm - N/A   Mostly Cloudy
3:53 AM 48.0 °F - 43.0 °F 83% 29.77 in 10.0 mi NNW 9.2 mph - N/A   Overcast
4:39 AM 50.0 °F - 44.6 °F 82% 29.77 in 10.0 mi NNW 5.8 mph - N/A   Overcast
4:53 AM 50.0 °F - 44.1 °F 80% 29.77 in 10.0 mi North 5.8 mph - N/A   Overcast
5:53 AM 48.9 °F - 44.1 °F 83% 29.77 in 10.0 mi North 6.9 mph - N/A   Overcast
6:25 AM 51.8 °F - 44.6 °F 76% 29.76 in 10.0 mi North 5.8 mph - N/A   Overcast
6:48 AM 50.0 °F - 46.4 °F 87% 29.76 in 4.0 mi NE 11.5 mph - 0.00 in Rain Light Rain
6:53 AM 50.0 °F - 46.9 °F 89% 29.76 in 6.0 mi NE 13.8 mph 18.4 mph 0.00 in Rain Light Rain
7:53 AM 51.1 °F - 48.0 °F 89% 29.76 in 4.0 mi NE 10.4 mph - 0.01 in Rain Light Rain
8:28 AM 51.8 °F - 48.2 °F 88% 29.76 in 10.0 mi NE 10.4 mph - 0.00 in   Overcast
8:53 AM 52.0 °F - 48.9 °F 89% 29.76 in 10.0 mi NE 9.2 mph - 0.00 in   Overcast
9:28 AM 53.6 °F - 50.0 °F 88% 29.76 in 4.0 mi NE 11.5 mph - 0.00 in Rain Light Rain
9:50 AM 53.6 °F - 51.8 °F 94% 29.76 in 3.0 mi NE 10.4 mph - 0.02 in   Overcast
9:53 AM 53.1 °F - 51.1 °F 93% 29.76 in 7.0 mi NE 10.4 mph - 0.02 in   Overcast
10:53 AM 55.0 °F - 52.0 °F 89% 29.76 in 10.0 mi NE 9.2 mph - 0.00 in   Overcast
11:53 AM 57.0 °F - 52.0 °F 83% 29.75 in 10.0 mi ENE 11.5 mph - 0.00 in Rain Light Rain
12:53 PM 57.9 °F - 53.1 °F 84% 29.75 in 10.0 mi NE 12.7 mph - 0.00 in   Overcast
1:53 PM 57.9 °F - 52.0 °F 81% 29.74 in 10.0 mi ENE 13.8 mph 19.6 mph 0.00 in Rain Light Rain
2:37 PM 57.2 °F - 51.8 °F 82% 29.73 in 5.0 mi ENE 11.5 mph - 0.01 in Rain Rain
2:49 PM 57.2 °F - 53.6 °F 88% 29.73 in 2.5 mi ENE 13.8 mph - 0.02 in Rain Light Rain
2:50 PM 55.9 °F - 53.1 °F 90% 29.73 in 2.5 mi ENE 12.7 mph - 0.02 in Rain Light Rain
2:57 PM 57.2 °F - 53.6 °F 88% 29.73 in 6.0 mi ENE 10.4 mph - 0.00 in Rain Light Rain
3:19 PM 55.4 °F - 53.6 °F 94% 29.73 in 2.5 mi ENE 12.7 mph - 0.02 in Rain Rain
3:27 PM 55.4 °F - 53.6 °F 94% 29.73 in 1.8 mi ENE 10.4 mph - 0.07 in Rain Rain
3:33 PM 55.4 °F - 55.4 °F 100% 29.73 in 3.0 mi ENE 11.5 mph - 0.07 in Rain Light Rain
3:53 PM 57.0 °F - 55.0 °F 93% 29.74 in 5.0 mi ENE 13.8 mph - 0.07 in Rain Light Rain
4:43 PM 59.0 °F - 55.4 °F 88% 29.74 in 10.0 mi SE 11.5 mph - 0.01 in   Mostly Cloudy
4:53 PM 59.0 °F - 55.0 °F 87% 29.74 in 10.0 mi SE 10.4 mph - 0.01 in   Overcast
5:53 PM 57.9 °F - 51.1 °F 78% 29.75 in 10.0 mi SE 9.2 mph - N/A   Overcast
6:53 PM 57.9 °F - 51.1 °F 78% 29.74 in 10.0 mi SSE 3.5 mph - 0.00 in   Overcast
7:34 PM 59.0 °F - 51.8 °F 77% 29.73 in 10.0 mi Calm Calm - N/A   Overcast
7:53 PM 59.0 °F - 51.1 °F 75% 29.73 in 10.0 mi ENE 4.6 mph - 0.00 in Rain Light Rain
8:53 PM 57.0 °F - 54.0 °F 89% 29.73 in 9.0 mi NE 4.6 mph - 0.03 in Rain Light Rain
9:28 PM 55.4 °F - 53.6 °F 94% 29.73 in 2.0 mi East 5.8 mph - 0.11 in Rain Light Rain
9:34 PM 55.4 °F - 53.6 °F 94% 29.73 in 3.0 mi ENE 4.6 mph - 0.12 in Rain Light Rain
9:53 PM 55.9 °F - 54.0 °F 93% 29.74 in 10.0 mi East 5.8 mph - 0.12 in   Overcast
10:53 PM 55.0 °F - 53.1 °F 93% 29.74 in 10.0 mi NE 5.8 mph - N/A   Mostly Cloudy
11:44 PM 55.4 °F - 53.6 °F 94% 29.74 in 10.0 mi NE 5.8 mph - 0.00 in Rain Light Rain
11:53 PM 55.9 °F - 54.0 °F 93% 29.75 in 10.0 mi NE 5.8 mph - 0.00 in   Overcast